Witan Supriadi

Gözlemci - Persis
23 Nis 2028
Pazar
İşlem

Kişilik

Uyum (4) Hırs (19) Tartışma (2) Sadakat (5) Baskı (6) Profesyonellik (19) Sportmenlik (16) Mizaç (14)

Profil

Antrenörlük Tarzı Demokratik
Lisans Ulusal A
Kararlılık 5
İnsan Yönetimi 4
Motivasyon 10
Disiplin 4
İş Memnuniyeti
100%
Yorgunluk
0%
Görev Gözlemci
Maaş 44.6K h/h
Sözleşme 14.03.2029

Performans

Davranış İyi
Antrenman Etkinliği
33%
Oyuncu Gelişimi
35%
Sakatlık Önleme
40%
Taktik Uygulama
40%

Son Olaylar

Oyuncu izleme toplantısına katıldı 14gün önce
Oyuncu izleme toplantısına katıldı 21gün önce
Oyuncu izleme toplantısına katıldı 28gün önce
Oyuncu izleme toplantısına katıldı 35gün önce
Oyuncu izleme toplantısına katıldı 42gün önce
Doğum Günü 49gün önce
Oyuncu izleme toplantısına katıldı 49gün önce
Oyuncu izleme toplantısına katıldı 56gün önce

Şu Anda İzliyor

105
Oyuncu Kulüp Durum Yetenek Güven İzlendi Son Gözlem Son Oy
Aly Ndom Persijap Aktif 91 / 95 40% 6 30.01.2028 -
Marcos Enrique Tristán Suárez Aktif 122 / 106 40% 1 30.01.2028 -
Stjepan Lončar Persija Aktif 103 / 96 40% 4 29.01.2028 -
Danilo Santacruz Madura United Aktif 110 / 114 40% 1 29.01.2028 -
Fernando Martínez Central Córdoba SdE Aktif 124 / 113 40% 7 28.01.2028 -
Alexis Gómez Persijap Aktif 94 / 86 40% 2 27.01.2028 -
Ljupce Doriev Sogdiana Aktif 123 / 103 40% 1 27.01.2028 -
Gustavo Viera Cerro Largo Aktif 99 / 113 40% 2 26.01.2028 -
Augusto Berrondo Tristán Suárez Aktif 114 / 92 40% 1 26.01.2028 -
Santiago Valenzuela Chaco For Ever Aktif 108 / 132 40% 7 25.01.2028 -
Nermin Haljeta PSIM Aktif 103 / 91 40% 6 18.01.2028 -
Rizky Eka Persib Aktif 84 / 104 40% 1 18.01.2028 -
Rayco Persita Aktif 103 / 98 40% 4 17.01.2028 -
Anton Fase PSIM Aktif 109 / 96 40% 5 17.01.2028 -
Ibrahima Dembélé Bali United Aktif 90 / 111 40% 1 12.01.2028 -
Santiago Corbo Miramar Misiones Aktif 114 / 126 40% 2 09.01.2028 -
Julián Palacios Unión de Santa Fe Aktif 113 / 123 40% 1 09.01.2028 -
Evan Kurniawan Persita Reddedildi 81 / 86 62% 1 07.01.2028 Reddet
Matías Samaniego Talleres Aktif 94 / 110 40% 2 06.01.2028 -
Esteban Valencia Cobresal Aktif 106 / 108 40% 2 06.01.2028 -
Santiago Camacho Estudiantes Aktif 102 / 87 40% 2 05.01.2028 -
Juan Esteban Ávalo Aguilas Doradas Aktif 114 / 121 40% 6 05.01.2028 -
Jhoao Rodríguez Deportes Quindio Aktif 112 / 111 40% 5 04.01.2028 -
Marco Miori Alvarado Aktif 102 / 119 40% 2 04.01.2028 -
Andrés Amaya Fortaleza CEIF Aktif 111 / 135 40% 1 02.01.2028 -
Franco Bustamante Almagro Aktif 97 / 83 40% 6 01.01.2028 -
Fabián Suárez Chalares Aguilas Doradas Aktif 107 / 110 40% 2 01.01.2028 -
Ilja Zhbanov Cobresal Reddedildi 90 / 94 69% 1 01.01.2028 Reddet
Lucas Cardoso Maluku Utara United Reddedildi 92 / 82 62% 1 01.01.2028 Reddet
Jort van der Sande Bali United Aktif 98 / 91 40% 6 23.12.2027 -
Lorenzo Monti Temperley Aktif 99 / 101 40% 7 23.12.2027 -
Kianz Froese Semen Padang Aktif 108 / 84 40% 5 22.12.2027 -
Juan David Rueda Alianza Petrolera Aktif 125 / 108 40% 6 21.12.2027 -
Johan Campaña Patriotas Aktif 125 / 126 40% 4 19.12.2027 -
Lautaro Núñez Alvarado Aktif 108 / 98 40% 3 18.12.2027 -
Juan Álvarez Arema Aktif 107 / 108 40% 8 14.12.2027 -
Thomas Ortega Quilmes Aktif 103 / 90 40% 1 13.12.2027 -
Taisei Marukawa Dewa United Aktif 82 / 85 40% 2 12.12.2027 -
Imanol García Persik Aktif 93 / 105 40% 1 11.12.2027 -
Luquinhas PSBS Biak Aktif 101 / 106 40% 4 10.12.2027 -
Tomás Ramírez Morón Aktif 123 / 121 40% 2 10.12.2027 -
Sheriddin Boboev PSM Aktif 90 / 81 40% 2 08.12.2027 -
Santiago Vera Almirante Brown Aktif 128 / 93 40% 6 01.12.2027 -
Santiago Patroni Defensores Unidos Aktif 114 / 116 40% 2 28.11.2027 -
Kaio Nunes Borneo Aktif 110 / 118 40% 2 27.11.2027 -
Luka Čumić PSM Aktif 96 / 84 40% 2 24.11.2027 -
Cheickna Samaké Persija Aktif 109 / 96 40% 2 21.11.2027 -
Andrés Tello Deportes Quindio Aktif 97 / 127 40% 1 16.11.2027 -
Brian Guerra Chaco For Ever Aktif 99 / 104 40% 3 13.11.2027 -
Jefferson Persebaya Aktif 115 / 109 40% 3 07.11.2027 -
Franco Hanashiro Colegiales Aktif 113 / 93 40% 1 03.11.2027 -
Sávio PSM Aktif 95 / 91 40% 2 25.10.2027 -
Kei Hirose Borneo Aktif 95 / 107 40% 1 21.10.2027 -
Didier Dawson Envigado Aktif 100 / 122 40% 1 16.10.2027 -
Camilo Machado Madryn Aktif 124 / 125 40% 2 06.10.2027 -
Alexis Messidoro Dewa United Aktif 100 / 114 40% 1 01.10.2027 -
Francisco Maidana Gimnasia y Esgrima Aktif 118 / 103 40% 4 30.09.2027 -
Reno Piscopo Persik Aktif 102 / 97 40% 1 28.09.2027 -
Santiago Martínez Godoy Cruz Aktif 117 / 119 40% 2 25.09.2027 -
Ofek Biton Bali United Aktif 101 / 107 40% 1 19.09.2027 -
Brandon Wilson Bali United Aktif 94 / 76 40% 1 17.09.2027 -
Ignacio Vallejos Colegiales Aktif 121 / 120 40% 2 16.09.2027 -
Diego Campos Bali United Aktif 117 / 108 40% 3 13.09.2027 -
Diego Vásquez Agropecuario Argentino Aktif 109 / 85 40% 1 08.09.2027 -
Emiliano Sosa Cerro Aktif 116 / 118 40% 1 25.08.2027 -
Kallum Cesay Salford City Aktif 93 / 112 40% 2 05.08.2027 -
Sebastián Parada San Luis Aktif 102 / 90 40% 1 25.07.2027 -
Kane Drummond Oldham Athletic Aktif 104 / 110 40% 2 23.07.2027 -
Rodrigo Benítez Tranmere Rovers Aktif 99 / 81 40% 1 16.07.2027 -
Igor Shkolik SKA Khabarovsk Aktif 92 / 85 40% 4 14.07.2027 -
Đorđe Pantelić Spartak Kostroma Aktif 112 / 125 40% 4 12.07.2027 -
Niccolò Zanellato Casarano Aktif 117 / 86 40% 1 09.07.2027 -
Samuele Careccia Pergolettese Aktif 103 / 90 40% 1 08.07.2027 -
Danil Lipovoy Ufa Aktif 99 / 82 40% 5 07.07.2027 -
Pietro Reggiori Pro Patria Aktif 94 / 120 40% 3 01.07.2027 -
Léo Cordeiro Ural Aktif 121 / 116 40% 1 25.06.2027 -
Evgeny Voronin Volga Aktif 82 / 88 40% 2 23.06.2027 -
Konstantin Kertanov Chelyabinsk Aktif 86 / 104 40% 1 23.06.2027 -
Marcos Astina Borneo Aktif 121 / 108 40% 2 22.06.2027 -
Vladislav Kamilov Ufa Aktif 108 / 86 40% 1 22.06.2027 -
Daniel Valdelamar Yenisey Aktif 82 / 106 40% 2 21.06.2027 -
Anton Antonov Chernomorets Aktif 96 / 117 40% 2 21.06.2027 -
Claudio Messaggi Ospitaletto Aktif 86 / 114 40% 3 19.06.2027 -
Migran Ageyan Ufa Aktif 82 / 73 40% 1 15.06.2027 -
David Kokoev Yenisey Aktif 103 / 105 40% 2 14.06.2027 -
Magomed Nasibov Pobeda Aktif 73 / 104 40% 1 13.06.2027 -
Kirill Malyarov Shinnik Aktif 94 / 103 40% 1 11.06.2027 -
Krasian Kolev Chernomorets Aktif 83 / 96 40% 3 08.06.2027 -
Alexandr Saplinov Volga Aktif 102 / 118 40% 1 06.06.2027 -
Alexey Berdnikov Chelyabinsk Aktif 102 / 85 40% 2 02.06.2027 -
Timofey Shipunov Ufa Aktif 78 / 86 40% 1 01.06.2027 -
Rafael Camacho Sporting CP Aktif 85 / 92 40% 1 31.05.2027 -
Nikolay Giorgobiani Fakel Aktif 121 / 96 40% 1 28.05.2027 -
Darío Ramírez Real Sociedad Aktif 101 / 84 40% 1 20.05.2027 -
Francesco Rillo Picerno Aktif 93 / 85 40% 1 20.05.2027 -
Nikolay Boyarkin Salyut Aktif 85 / 81 40% 2 02.05.2027 -
Vyacheslav Yakimov Fakel Aktif 114 / 123 40% 1 26.04.2027 -
Lorenzo Maasland Casarano Aktif 84 / 111 40% 2 22.04.2027 -
Arshak Koryan SKA Khabarovsk Aktif 85 / 116 40% 1 20.04.2027 -
Ilja Safronov Rotor Aktif 117 / 93 40% 1 14.04.2027 -
Dion Pereira Crawley Town Aktif 79 / 108 40% 1 14.04.2027 -
Jake Batty Plymouth Argyle Aktif 91 / 106 40% 1 11.04.2027 -
Ruslan Baitukov Chelyabinsk Aktif 82 / 73 40% 2 09.04.2027 -
Alexis Coman Chaika Aktif 79 / 72 40% 1 08.04.2027 -
Daniil Penchikov Arsenal Tula Aktif 118 / 83 40% 1 26.03.2027 -